INTELSAT 30 (IS-30)

Last updated on Sat Oct 12 2024 00:02:40 GMT+0000 (Coordinated Universal Time)

1 40271U 14062A 24284.34802446 -.00000145 00000+0 00000+0 0 9997 2 40271 0.0169 157.9150 0001241 40.1857 211.4778 1.00273053 36609
UTC large
Height (km)
Speed (km/s)
/
Latitude / Longitude
Inclination (degrees)
Orbital Period (minutes)
Azimuth
Elevation
Range (km)
Doppler Factor

Next 0 passes for location: London (51.5072 / 0.1276)

Sorry there are no passes over London.